Weather History for KMHT - January, 2013

Change the Weather History Date:

Wednesday, January 9, 2013

  Actual Average Record
Temperature  
Mean Temperature 30 °F -  
Max Temperature 43 °F 29 °F 57 °F (2008)
Min Temperature 17 °F 8 °F -13 °F (1968)
Degree Days  
Heating Degree Days 35    
Moisture  
Dew Point 22 °F    
Average Humidity 74    
Maximum Humidity 92    
Minimum Humidity 49    
Precipitation  
Precipitation 0.00 in - - ()
Snow  
Snow 0.00 in - - ()
Snow Depth 7.00 in    
Sea Level Pressure  
Sea Level Pressure 30.24 in    
Wind  
Wind Speed 2 mph (SSW)    
Max Wind Speed 15 mph    
Max Gust Speed 23 mph    
Visibility 9 miles    
Events Rain    
Averages and records for this station are not official NWS values.
T = Trace of Precipitation, MM = Missing Value Source: NWS Daily Summary

Daily Weather History Graph

Daily Weather History Graph

Search for Another Location

Airport or City:

Trip Planner

Search our weather history database for the weather conditions in past years. The results will help you decide how hot, cold, wet, or windy it might be!

Date:

Astronomy

Jan. 09, 2013 Rise Set
Actual Time 7:16 AM EST 4:30 PM EST
Civil Twilight 6:44 AM EST 5:01 PM EST
Nautical Twilight 6:09 AM EST 5:37 PM EST
Astronomical Twilight 5:34 AM EST 6:11 PM EST
Moon 4:52 AM EST (1/9) 2:28 PM EST (1/9)
Length of Visible Light 10h 17m
Length of Day
9h 14m
Waning Crescent, 6% of the Moon is Illuminated
Jan 9
Waning Crescent
Jan 11
New
Jan 18
First Quarter
Jan 26
Full
Feb 3
Last Quarter

Hourly Weather History & Observations

Time (EST) Temp. Windchill Dew Point Humidity Pressure Visibility Wind Dir Wind Speed Gust Speed Precip Events Conditions
12:53 AM 21.9 °F - 19.0 °F 89% 30.40 in 10.0 mi Calm Calm - N/A   Clear
1:53 AM 25.0 °F - 21.0 °F 85% 30.41 in 10.0 mi Calm Calm - N/A   Clear
2:53 AM 21.0 °F 16.2 °F 18.0 °F 88% 30.40 in 10.0 mi North 3.5 mph - N/A   Clear
3:53 AM 19.9 °F - 17.1 °F 89% 30.40 in 10.0 mi Calm Calm - N/A   Clear
4:53 AM 19.9 °F - 18.0 °F 92% 30.40 in 10.0 mi Calm Calm - N/A   Clear
5:53 AM 19.0 °F - 16.0 °F 88% 30.41 in 10.0 mi Calm Calm - N/A   Clear
6:53 AM 17.1 °F - 14.0 °F 88% 30.43 in 7.0 mi Calm Calm - N/A   Clear
7:53 AM 18.0 °F - 14.0 °F 84% 30.44 in 7.0 mi Calm Calm - N/A   Clear
8:53 AM 21.0 °F - 17.1 °F 85% 30.43 in 7.0 mi Calm Calm - N/A   Clear
9:53 AM 24.1 °F - 19.9 °F 84% 30.40 in 7.0 mi Calm Calm - N/A   Clear
10:53 AM 27.0 °F - 21.9 °F 81% 30.38 in 7.0 mi Calm Calm - N/A   Clear
11:53 AM 30.0 °F - 21.0 °F 69% 30.29 in 7.0 mi Calm Calm - N/A   Clear
12:53 PM 33.1 °F - 23.0 °F 66% 30.22 in 7.0 mi Calm Calm - N/A   Clear
1:53 PM 35.1 °F 30.1 °F 21.9 °F 59% 30.22 in 8.0 mi South 5.8 mph - N/A   Clear
2:53 PM 36.0 °F 32.1 °F 24.1 °F 62% 30.15 in 8.0 mi SSE 4.6 mph - N/A   Overcast
3:53 PM 39.0 °F 32.8 °F 27.0 °F 62% 30.09 in 10.0 mi SSE 9.2 mph - 0.00 in Rain Light Rain
4:53 PM 37.0 °F - 27.0 °F 67% 30.06 in 10.0 mi Calm Calm - 0.00 in   Overcast
5:53 PM 37.9 °F 30.5 °F 28.0 °F 68% 30.01 in 10.0 mi South 11.5 mph - N/A   Scattered Clouds
6:53 PM 37.9 °F 33.5 °F 28.9 °F 70% 30.02 in 10.0 mi South 5.8 mph - N/A   Partly Cloudy
7:53 PM 37.9 °F 34.4 °F 30.0 °F 73% 30.02 in 10.0 mi SSW 4.6 mph - N/A   Clear
8:53 PM 39.9 °F 35.1 °F 30.9 °F 70% 30.00 in 10.0 mi SSW 6.9 mph - N/A   Clear
9:53 PM 41.0 °F 37.1 °F 30.0 °F 65% 30.03 in 10.0 mi SSW 5.8 mph - N/A   Clear
10:53 PM 43.0 °F 38.2 °F 27.0 °F 53% 30.04 in 10.0 mi WSW 8.1 mph - N/A   Overcast
11:53 PM 43.0 °F 35.7 °F 25.0 °F 49% 30.04 in 10.0 mi West 15.0 mph 23.0 mph N/A   Mostly Cloudy